INMARSAT 3-F1

Last updated on Nov. 13, 2019, 4:20 a.m. UTC

1 23839U 96020A   19316.41496948  .00000019  00000-0  00000+0 0  9996
2 23839   5.6493  63.3842 0005304 168.3867  33.3972  1.00273654 86460
UTC
Height (km)
Latitude
Longitude
Inclination
Orbital Period
UTC large
Height (km)
Speed (km/s)
/
Latitude / Longitude
Inclination (degrees)
Orbital Period (minutes)
Azimuth
Elevation
Range (km)
Doppler Factor
iOS Compass Heading
iOS Angle

Next 30 passes for location: Hong Kong

Rise time Rise Azimuth (degrees) Set time Set Azimuth (degrees) Duration Max altitude (degrees)

No matching passes for this satellites